Regional Weather Roundup
Issued by NWS

Home | Current Version | Previous Version | Graphics & Text | Print | Product List | Glossary On
Versions: 1 2 3 4 5 6 7 8 9 10 11 12 13 14 15 16 17 18 19 20 21 22 23 24 25 26 27 28 29 30 31 32 33 34 35 36 37 38 39 40 41 42 43 44 45 46 47 48 49 50
000
ASUS43 KMKX 242300
RWRWI

WISCONSIN REGIONAL WEATHER ROUNDUP
NATIONAL WEATHER SERVICE MILWAUKEE/SULLIVAN WI
600 PM CDT TUE APR 24 2018

NOTE: "FAIR" INDICATES FEW OR NO CLOUDS BELOW 12,000 FEET WITH NO
SIGNIFICANT WEATHER AND/OR OBSTRUCTIONS TO VISIBILITY.

WIZ001-002-006>008-014>016-023>028-250000-
NORTHWEST WISCONSIN

CITY           SKY/WX    TMP DP  RH WIND       PRES   REMARKS
SUPERIOR ARPT  FAIR      58  26  29 N10G20    30.17R
ASHLAND        FAIR      50  33  52 S6        30.18S
HAYWARD        FAIR      52  35  52 N6        30.17S
SIREN          FAIR      56  32  40 N10       30.18S
CUMBERLAND     FAIR      50  34  53 N10       30.16S
RICE LAKE      CLOUDY    51  35  54 N8        30.17S
CHETEK         DRIZZLE   49  37  62 N7        30.16R
LADYSMITH      LGT RAIN  47  37  68 N13       30.17R
EAU CLAIRE     NOT AVBL
MENOMONIE      PTSUNNY   57  32  39 NW18G24   30.14R
NEW RICHMOND   PTSUNNY   54  35  48 N13       30.17S
OSCEOLA        FAIR      56  37  50 N13       30.20S
$$

WIZ003>005-009-010-017-018-250000-
NORTH CENTRAL WISCONSIN

CITY           SKY/WX    TMP DP  RH WIND       PRES   REMARKS
MANITOWISH WTR RAIN      38  38  99 N5        30.17R WCI  35
ARBOR VITAE    CLOUDY    44  29  54 N15       30.15R
WOODRUFF       CLOUDY    44  29  54 N15       30.15R
RHINELANDER    CLOUDY    48  28  46 N10G23    30.12R
EAGLE RIVER    MIX PCPN  44  25  47 N14       30.14R
LAND O LAKES   LGT RAIN  42  29  59 N14G20    30.18R
PHILLIPS       DRIZZLE   43  32  66 N5        30.15S
TOMAHAWK       CLOUDY    52  29  40 NW13G18   30.12R
MEDFORD        FAIR      55  32  41 N20G26    30.09R
MERRILL        CLOUDY    60  31  33 N14G20    30.07R
$$

WIZ029-030-035-036-043>047-250000-
CENTRAL WISCONSIN

CITY           SKY/WX    TMP DP  RH WIND       PRES   REMARKS
WAUSAU         CLOUDY    62  31  31 N14       30.03R
MOSINEE        PTSUNNY   63  32  31 N16       30.05R
MARSHFIELD     CLOUDY    63  36  36 N14       30.04R
STEVENS POINT  CLOUDY    63  35  35 N7        30.03R
WAUPACA        FAIR      68  29  23 NE6       30.01S
WAUTOMA        CLOUDY    68  31  25 NE7       30.00S
WISC RAPIDS    CLOUDY    65  36  34 N7        30.03R
CAMP DOUGLAS   NOT AVBL
$$

WIZ011>013-019>022-031-037>040-048>050-250000-
NORTHEAST WISCONSIN

CITY           SKY/WX    TMP DP  RH WIND       PRES   REMARKS
ANTIGO         CLOUDY    57  36  46 N12       30.05R
SHAWANO        PTSUNNY   60  31  33 E13       30.04S
OCONTO         CLOUDY    54  33  46 NE7       30.06R
STURGEON BAY   PTSUNNY   55  34  45 NE8       30.06R
GREEN BAY      PTSUNNY   54  37  52 NE21      30.04R
MANITOWOC      FAIR      59  48  67 VRB7      30.03F
APPLETON       MOSUNNY   64   9  11 E12       30.00S
CLINTONVILLE   FAIR      61  30  31 E6        30.03R
OSHKOSH        FAIR      65  36  34 NE9       30.01S
$$

WIZ032>034-041-042-053>061-250000-
SOUTHWEST WISCONSIN

CITY           SKY/WX    TMP DP  RH WIND       PRES   REMARKS
LA CROSSE      CLOUDY    69  37  30 N13       30.04R
SPARTA         CLOUDY    67  38  33 N10G18    30.05R
VIROQUA        CLOUDY    65  41  41 N9        30.04R
BOSCOBEL       CLOUDY    72  35  25 NW8       30.00S
PRAIRIE DU CHI PTSUNNY   70  31  23 NW10      30.01S
PLATTEVILLE    PTSUNNY   72  35  25 NW14      30.00S
$$

WIZ056-057-062-063-064-067-068-250000-
SOUTH CENTRAL WISCONSIN

CITY           SKY/WX    TMP DP  RH WIND       PRES   REMARKS
REEDSBURG      CLOUDY    69  35  29 N8        29.99S
BARABOO/DELLS  CLOUDY    71  29  20 N7        29.99S
LONE ROCK      NOT AVBL
MINERAL POINT  FAIR      73  28  19 N8G17     30.00S
MADISON        FAIR      67  33  28 NE13      29.98R
MIDDLETON      FAIR      73  28  18 N13       29.99S
WATERTOWN      FAIR      67  27  22 N12       29.99S
MONROE         FAIR      70  28  21 N13       29.98S
JANESVILLE     MOSUNNY   72  14  11 N9        29.98R
$$

WIZ051-052-058>065-066-070>072-250000-
SOUTHEAST WISCONSIN

CITY           SKY/WX    TMP DP  RH WIND       PRES   REMARKS
MILWAUKEE      FAIR      56  47  71 NE8       30.01F
WAUKESHA       SUNNY     61  46  59 E8        30.00S
MILWAUKEE/TIMM MOSUNNY   57  45  62 E8        30.02S
RACINE         FAIR      56  47  71 NE9       30.02S
BURLINGTON     FAIR      66  46  48 E10       29.98S
KENOSHA        FAIR      59  47  64 E10       30.00S
FOND DU LAC    FAIR      65  35  33 NE12      30.01S
SHEBOYGAN      PTSUNNY   61  51  70 E9        30.01F
WEST BEND      FAIR      61  46  59 E9        30.01S
JUNEAU         FAIR      66  35  31 N10G16    30.01F
$$

LSZ147-162-250000-
LAKE SUPERIOR

STATION/POSITION TIME  TEMP    WIND        PRES    WAVE
                       AIR SEA DIR/SP/G            HT/PER
                 (UTC) (F)     (DEG/KT/KT) (MB)    (FT/S)
DEVILS ISLAND    2200   48     130/  4/  6 1022.3F
SAXON HARBOR     2240   49     170/  3/  7 1021.7S
$$

LMZ867-665-643>646-250000-
LAKE MICHIGAN

STATION/POSITION TIME  TEMP    WIND        PRES    WAVE
                       AIR SEA DIR/SP/G            HT/PER
                 (UTC) (F)     (DEG/KT/KT) (MB)    (FT/S)
NORTHPORT PIER   2240   45                 1017.9F
KEWAUNEE LAKESHO 2230   44      40/  4/  6 1017.0R
SHEBOYGAN LAKESH 2200   48      50/  5/  5 1017.0S
PORT WASHINGTON  2230   47      40/  6/  8 1017.6S
MILWAUKEE LAKESH 2230   44      30/  7/  8   N/A
KENOSHA   LAKESH 2200   44                 1016.3
$$

TC  - TEMPERATURE IN CELSIUS
VSB - VISIBILITY IN STATUTE MILES
WCI - WIND CHILL INDEX
HX  - HEAT INDEX





USA.gov is the U.S. government's official web portal to all federal, state and local government web resources and services.